| time (UTC) | temp F | wind direction | speed MPH | gust MPH | rain 1hr in | rain 24hr in | rain mn in | humidity % | barometer mb |
| 20260510083005 | 72 | 193 | 0.0 | 4.0 | 0.00 | 0.03 | 0.00 | 79 | 1009.9 |
| 20260510081526 | 72 | 181 | 0.0 | 2.0 | 0.00 | 0.03 | 0.00 | 79 | 1009.8 |
| 20260510080017 | 73 | 182 | 0.0 | 4.0 | 0.00 | 0.03 | 0.00 | 78 | 1009.8 |
| 20260510074530 | 74 | 183 | 0.0 | 3.0 | 0.00 | 0.03 | 0.00 | 75 | 1009.7 |
| 20260510073022 | 75 | 185 | 0.0 | 4.0 | 0.00 | 0.03 | 0.00 | 76 | 1009.6 |
| 20260510071508 | 74 | 208 | 1.0 | 4.0 | 0.00 | 0.03 | 0.00 | 77 | 1009.6 |
| 20260510070025 | 75 | 192 | 2.0 | 6.0 | 0.00 | 0.03 | 0.00 | 76 | 1009.7 |
| 20260510064514 | 75 | 210 | 3.0 | 8.0 | 0.00 | 0.03 | 0.00 | 76 | 1009.6 |
| 20260510063004 | 75 | 166 | 2.0 | 5.0 | 0.00 | 0.03 | 0.00 | 77 | 1009.7 |
| 20260510061535 | 77 | 165 | 0.0 | 2.0 | 0.00 | 0.03 | 0.00 | 75 | 1009.7 |
| 20260510060011 | 76 | 168 | 0.0 | 3.0 | 0.00 | 0.03 | 0.00 | 78 | 1009.7 |
| 20260510054530 | 75 | 181 | 0.0 | 2.0 | 0.00 | 0.03 | 0.00 | 79 | 1009.7 |
| 20260510053016 | 76 | 139 | 0.0 | 3.0 | 0.00 | 0.03 | 0.00 | 77 | 1009.8 |
| 20260510051502 | 78 | 153 | 0.0 | 3.0 | 0.00 | 0.03 | 0.00 | 75 | 1009.5 |
| 20260510050020 | 77 | 174 | 0.0 | 4.0 | 0.00 | 0.03 | 0.00 | 76 | 1009.3 |
| 20260510044510 | 78 | 186 | 1.0 | 6.0 | 0.00 | 0.03 | 0.03 | 75 | 1009.0 |
| 20260510043028 | 79 | 178 | 0.0 | 0.0 | 0.00 | 0.03 | 0.03 | 74 | 1009.2 |
| 20260510041517 | 78 | 112 | 0.0 | 0.0 | 0.00 | 0.03 | 0.03 | 75 | 1009.1 |
| 20260510040005 | 78 | 136 | 0.0 | 1.0 | 0.00 | 0.03 | 0.03 | 75 | 1009.0 |
| 20260510034526 | 78 | 139 | 0.0 | 0.0 | 0.00 | 0.03 | 0.03 | 75 | 1008.8 |
| 20260510033015 | 79 | 144 | 0.0 | 0.0 | 0.00 | 0.03 | 0.03 | 72 | 1008.8 |
| 20260510031508 | 80 | 148 | 0.0 | 1.0 | 0.00 | 0.03 | 0.03 | 71 | 1008.4 |
| 20260510030025 | 79 | 159 | 0.0 | 0.0 | 0.00 | 0.03 | 0.03 | 72 | 1008.4 |
| 20260510024527 | 81 | 156 | 0.0 | 1.0 | 0.00 | 0.03 | 0.03 | 69 | 1008.2 |
| 20260510023004 | 81 | 141 | 0.0 | 1.0 | 0.00 | 0.03 | 0.03 | 70 | 1008.1 |
| 20260510021525 | 82 | 146 | 0.0 | 1.0 | 0.00 | 0.03 | 0.03 | 67 | 1008.0 |
| 20260510020014 | 83 | 126 | 0.0 | 3.0 | 0.00 | 0.03 | 0.03 | 65 | 1007.8 |
| 20260510014503 | 83 | 139 | 0.0 | 3.0 | 0.00 | 0.03 | 0.03 | 64 | 1007.6 |
| 20260510013022 | 83 | 131 | 0.0 | 4.0 | 0.00 | 0.03 | 0.03 | 64 | 1007.3 |
| 20260510011510 | 84 | 125 | 1.0 | 3.0 | 0.00 | 0.03 | 0.03 | 61 | 1007.2 |
| 20260510010031 | 86 | 129 | 0.0 | 5.0 | 0.00 | 0.03 | 0.03 | 57 | 1007.0 |
| 20260510004519 | 85 | 91 | 3.0 | 9.0 | 0.00 | 0.03 | 0.03 | 57 | 1006.9 |
| 20260510003021 | 87 | 114 | 2.0 | 7.0 | 0.00 | 0.03 | 0.03 | 56 | 1006.7 |
| 20260510001530 | 89 | 144 | 0.0 | 3.0 | 0.00 | 0.03 | 0.03 | 50 | 1006.6 |
| 20260510000015 | 89 | 153 | 0.0 | 5.0 | 0.00 | 0.03 | 0.03 | 52 | 1006.4 |
| 20260509234515 | 88 | 108 | 1.0 | 7.0 | 0.00 | 0.03 | 0.03 | 53 | 1006.2 |
| 20260509233024 | 90 | 212 | 2.0 | 8.0 | 0.00 | 0.03 | 0.03 | 51 | 1005.9 |
| 20260509231516 | 90 | 217 | 1.0 | 7.0 | 0.00 | 0.03 | 0.03 | 51 | 1006.1 |
| 20260509230002 | 91 | 137 | 1.0 | 5.0 | 0.00 | 0.03 | 0.03 | 49 | 1006.7 |
| 20260509224525 | 90 | 160 | 1.0 | 3.0 | 0.00 | 0.03 | 0.03 | 52 | 1006.6 |
| 20260509223011 | 90 | 141 | 2.0 | 8.0 | 0.00 | 0.03 | 0.03 | 52 | 1006.4 |
| 20260509220020 | 92 | 245 | 0.0 | 5.0 | 0.00 | 0.03 | 0.03 | 49 | 1006.3 |
| 20260509214509 | 91 | 313 | 2.0 | 7.0 | 0.00 | 0.03 | 0.03 | 50 | 1006.5 |
| 20260509213027 | 92 | 150 | 3.0 | 9.0 | 0.00 | 0.03 | 0.03 | 48 | 1006.6 |
| 20260509211514 | 91 | 218 | 1.0 | 8.0 | 0.00 | 0.03 | 0.03 | 50 | 1006.6 |
| 20260509210007 | 92 | 192 | 2.0 | 9.0 | 0.00 | 0.03 | 0.03 | 49 | 1006.9 |
| 20260509204520 | 92 | 254 | 1.0 | 8.0 | 0.00 | 0.03 | 0.03 | 48 | 1007.1 |
| 20260509203009 | 91 | 204 | 2.0 | 9.0 | 0.00 | 0.03 | 0.03 | 50 | 1007.3 |
| 20260509201528 | 92 | 133 | 3.0 | 7.0 | 0.00 | 0.03 | 0.03 | 48 | 1007.6 |
| 20260509200021 | 91 | 208 | 2.0 | 9.0 | 0.00 | 0.03 | 0.03 | 53 | 1007.8 |
| 20260509194509 | 90 | 225 | 1.0 | 6.0 | 0.00 | 0.03 | 0.03 | 54 | 1008.2 |
| 20260509193022 | 89 | 210 | 1.0 | 5.0 | 0.00 | 0.03 | 0.03 | 55 | 1008.5 |
| 20260509191511 | 90 | 124 | 0.0 | 7.0 | 0.00 | 0.03 | 0.03 | 56 | 1008.7 |
| 20260509190031 | 90 | 189 | 2.0 | 8.0 | 0.00 | 0.03 | 0.03 | 55 | 1008.8 |
| 20260509184517 | 89 | 248 | 2.0 | 7.0 | 0.00 | 0.03 | 0.03 | 59 | 1008.9 |
| 20260509183016 | 88 | 293 | 4.0 | 7.0 | 0.00 | 0.03 | 0.03 | 60 | 1009.1 |
| 20260509181537 | 89 | 310 | 2.0 | 8.0 | 0.00 | 0.03 | 0.03 | 60 | 1009.2 |
| 20260509180009 | 86 | 301 | 3.0 | 6.0 | 0.00 | 0.03 | 0.03 | 63 | 1009.3 |
| 20260509174531 | 86 | 232 | 3.0 | 9.0 | 0.00 | 0.03 | 0.03 | 66 | 1009.5 |
| 20260509173023 | 84 | 346 | 2.0 | 8.0 | 0.00 | 0.03 | 0.03 | 68 | 1009.7 |
| 20260509171504 | 84 | 254 | 2.0 | 10.0 | 0.00 | 0.03 | 0.03 | 69 | 1009.9 |
| 20260509170020 | 84 | 241 | 0.0 | 6.0 | 0.00 | 0.03 | 0.03 | 75 | 1009.9 |
| 20260509164510 | 82 | 285 | 2.0 | 7.0 | 0.00 | 0.03 | 0.03 | 75 | 1010.0 |
| 20260509163030 | 81 | 298 | 2.0 | 8.0 | 0.00 | 0.03 | 0.03 | 78 | 1010.0 |
| 20260509161511 | 80 | 290 | 2.0 | 12.0 | 0.00 | 0.03 | 0.03 | 79 | 1009.8 |
| 20260509160027 | 78 | 288 | 1.0 | 7.0 | 0.00 | 0.03 | 0.03 | 85 | 1009.8 |
| 20260509154512 | 76 | 196 | 1.0 | 5.0 | 0.00 | 0.03 | 0.03 | 84 | 1010.0 |
| 20260509153031 | 74 | 281 | 2.0 | 5.0 | 0.03 | 0.03 | 0.03 | 85 | 1010.4 |
| 20260509151518 | 73 | 225 | 0.0 | 2.0 | 0.03 | 0.03 | 0.03 | 86 | 1010.7 |
| 20260509150012 | 73 | 290 | 1.0 | 3.0 | 0.03 | 0.03 | 0.03 | 85 | 1010.8 |
| 20260509144534 | 72 | 101 | 0.0 | 0.0 | 0.03 | 0.03 | 0.03 | 85 | 1010.7 |
| 20260509143014 | 72 | 111 | 0.0 | 0.0 | 0.00 | 0.00 | 0.00 | 86 | 1010.8 |
| 20260509141502 | 72 | 112 | 0.0 | 0.0 | 0.00 | 0.00 | 0.00 | 86 | 1010.9 |
| 20260509140021 | 72 | 91 | 0.0 | 0.0 | 0.00 | 0.00 | 0.00 | 86 | 1010.6 |
| 20260509134508 | 72 | 342 | 0.0 | 4.0 | 0.00 | 0.00 | 0.00 | 86 | 1009.5 |
| 20260509133030 | 72 | 16 | 0.0 | 2.0 | 0.00 | 0.00 | 0.00 | 86 | 1009.1 |
| 20260509131519 | 72 | 161 | 0.0 | 3.0 | 0.00 | 0.00 | 0.00 | 86 | 1009.4 |
| 20260509130008 | 72 | 168 | 0.0 | 2.0 | 0.00 | 0.00 | 0.00 | 86 | 1009.9 |
| 20260509124527 | 72 | 94 | 1.0 | 5.0 | 0.00 | 0.00 | 0.00 | 86 | 1010.2 |
| 20260509123015 | 72 | 70 | 1.0 | 5.0 | 0.00 | 0.00 | 0.00 | 86 | 1010.2 |
| 20260509121606 | 72 | 50 | 2.0 | 5.0 | 0.00 | 0.00 | 0.00 | 86 | 1010.3 |
| 20260509120021 | 72 | 351 | 2.0 | 8.0 | 0.00 | 0.00 | 0.00 | 86 | 1010.4 |
| 20260509114509 | 72 | 20 | 2.0 | 5.0 | 0.00 | 0.00 | 0.00 | 85 | 1010.2 |
| 20260509113029 | 72 | 13 | 0.0 | 0.0 | 0.00 | 0.00 | 0.00 | 85 | 1009.6 |
| 20260509111516 | 72 | 31 | 0.0 | 2.0 | 0.00 | 0.00 | 0.00 | 85 | 1009.2 |
| 20260509110005 | 72 | 44 | 0.0 | 1.0 | 0.00 | 0.00 | 0.00 | 86 | 1009.1 |
| 20260509104535 | 72 | 43 | 1.0 | 4.0 | 0.00 | 0.00 | 0.00 | 85 | 1009.3 |
| 20260509103015 | 72 | 77 | 0.0 | 2.0 | 0.00 | 0.00 | 0.00 | 85 | 1009.4 |
| 20260509101503 | 72 | 78 | 3.0 | 8.0 | 0.00 | 0.00 | 0.00 | 85 | 1009.5 |
| 20260509100023 | 72 | 29 | 2.0 | 5.0 | 0.00 | 0.00 | 0.00 | 85 | 1009.6 |
| 20260509094511 | 72 | 41 | 1.0 | 6.0 | 0.00 | 0.00 | 0.00 | 85 | 1008.9 |
| 20260509093045 | 72 | 31 | 0.0 | 1.0 | 0.00 | 0.00 | 0.00 | 85 | 1008.6 |
| 20260509091521 | 72 | 69 | 0.0 | 0.0 | 0.00 | 0.00 | 0.00 | 85 | 1008.2 |
| 20260509090009 | 72 | 74 | 0.0 | 2.0 | 0.00 | 0.00 | 0.00 | 85 | 1008.6 |
| 20260509084542 | 72 | 158 | 0.0 | 1.0 | 0.00 | 0.00 | 0.00 | 85 | 1008.4 |